Date,TemperatureHighF,TemperatureAvgF,TemperatureLowF,DewpointHighF,DewpointAvgF,DewpointLowF,HumidityHigh,HumidityAvg,HumidityLow,PressureMaxIn,PressureMinIn,WindSpeedMaxMPH,WindSpeedAvgMPH,GustSpeedMaxMPH,PrecipitationSumIn
2013-9-1,70.6,59.0,47.6,63.0,55.5,46.0,97,89,74,29.91,29.86,8,3,0,0.01
2013-9-2,71.0,64.5,55.9,64.0,60.3,53.0,94,86,76,29.90,29.84,9,3,0,0.00
2013-9-3,70.4,61.4,52.3,63.0,57.1,50.0,93,86,74,29.97,29.89,10,5,0,0.00
2013-9-4,70.8,64.1,60.4,64.0,59.7,57.0,91,85,75,30.00,29.93,16,6,0,0.00
2013-9-5,70.0,62.7,56.9,61.0,58.0,54.0,92,85,72,30.01,29.92,14,6,0,0.00
2013-9-6,73.5,61.2,53.3,57.0,54.4,51.0,93,80,55,29.98,29.81,13,5,0,0.00
2013-9-7,67.7,57.3,51.0,57.0,53.3,49.0,94,86,68,29.84,29.78,15,3,0,0.00
2013-9-8,62.9,54.3,49.7,56.0,51.7,48.0,96,91,78,29.83,29.73,8,2,0,0.00
2013-9-9,63.8,55.5,49.5,58.0,52.2,48.0,95,89,75,29.76,29.66,6,2,0,0.00
2013-9-10,71.4,59.6,48.8,61.0,55.5,48.0,96,87,70,29.81,29.66,20,5,0,0.01
2013-9-11,73.6,63.8,56.2,62.0,58.2,54.0,93,83,66,29.91,29.82,18,5,0,0.00
2013-9-12,64.0,59.9,55.9,59.0,57.2,54.0,95,91,82,29.93,29.85,16,6,0,0.00
2013-9-13,62.4,57.0,53.7,57.0,54.8,52.0,96,92,83,29.87,29.77,19,7,0,0.00
2013-9-14,63.9,58.1,54.4,58.0,55.2,53.0,96,90,79,29.79,29.73,16,6,0,0.00
2013-9-15,70.7,61.8,56.1,58.0,55.3,52.0,90,80,64,29.82,29.74,14,4,0,0.00
2013-9-16,67.2,59.4,52.4,58.0,54.8,50.0,93,85,71,29.88,29.79,17,5,0,0.00
2013-9-17,64.2,58.6,54.1,56.0,54.2,50.0,93,85,73,29.91,29.79,28,11,0,0.00
2013-9-18,65.0,57.2,51.1,55.0,50.9,47.0,89,80,68,29.90,29.82,17,6,0,0.00
2013-9-19,65.2,54.8,45.7,56.0,49.6,43.0,94,82,67,29.83,29.75,15,5,0,0.00
2013-9-20,70.8,61.9,54.8,64.0,57.5,48.0,95,85,73,29.78,29.71,11,4,0,0.18
2013-9-21,66.0,59.8,53.4,62.0,56.7,51.0,96,89,75,29.84,29.68,12,4,0,0.68
2013-9-22,66.3,58.0,49.7,57.0,53.6,48.0,96,85,71,29.97,29.84,9,3,0,0.01
2013-9-23,71.2,63.3,57.8,64.0,58.3,52.0,92,84,75,29.98,29.91,12,4,0,0.00
2013-9-24,67.1,60.6,54.8,59.0,54.7,50.0,92,81,73,29.98,29.91,16,6,0,0.00
2013-9-25,62.1,56.7,52.1,53.0,50.1,43.0,91,79,66,29.92,29.85,22,8,0,0.00
2013-9-26,62.9,54.9,45.7,52.0,46.2,41.0,83,73,61,29.98,29.86,25,8,0,0.00
2013-9-27,66.2,53.5,43.5,52.0,46.1,40.0,92,77,55,30.07,29.99,17,4,0,0.00
2013-9-28,67.2,57.7,46.4,58.0,52.2,42.0,91,82,71,30.04,29.98,10,3,0,0.00
2013-9-29,65.6,62.0,60.2,63.0,59.9,56.0,96,93,83,30.01,29.96,12,6,0,0.08
2013-9-30,69.7,60.8,53.9,62.0,56.6,48.0,97,86,70,30.00,29.93,14,6,0,0.09